DELTA 2 DEB (DPAF)

Satellite information

Favourite Embed

Satellite Type and Status

DEBRISIN ORBIT

Key statistics

Satellite DELTA 2 DEB (DPAF) at a glance.

Uptime

7170

Days in orbit

Revolutions

≈ 15.2

Per day

Orbit

SSO

Sun Synchronous Orbit

Inclination

98.3

Latest

Satellite identification and parameters

Extended collection of information and parameters for DELTA 2 DEB (DPAF).

Object identification

Identified? True

Debris? True

Object name: DELTA 2 DEB (DPAF)

International designator: 2006-016D

Object number (NORAD): 29110

Object ID (CCSDS): 29110

Country: UNITED STATES OF AMERICA (US)

Current information (Y/N): Y

RCS size: LARGE

Orbital parameters

Period: 94.93 minutes

Inclination: 98.3334 deg

SMA: 6893.353 km

Apoapsis: 516.707 km

Periapsis: 513.729 km

RAAN: 248.7855 deg

Eccentricy: 0.00021598

Argument of periapsis: 248.2757 deg

Mean anomaly: 138.9852 deg

Mean motion: 15.16900083 rev/day

Mean motion (dot): 0.00031575 rev/day2

B* drag term: 0.00160051 1/REarth

Two-line elements (TLE)

Creation date: Dec. 14, 2025, 3:07 a.m.

Reference frame: TEME

Reference center: EARTH

Epoch: Dec. 13, 2025, 5:04 p.m. UTC

TLE line 0: 0 DELTA 2 DEB (DPAF)

TLE line 1: 1 29110U 06016D 25347.71165304 .00031575 00000-0 16005-2 0 9999

TLE line 2: 2 29110 98.3334 248.7855 0002160 248.2757 138.9852 15.16900083 55546

Live tracking on map

Real-time ground track for satellite DELTA 2 DEB (DPAF).

In-orbit conjunctions

A list of the most updated potential collisions computed for object DELTA 2 DEB (DPAF).

Target Orbit TCA Probability of collision Miss distance Type
COSMOS 2228 LEO 2024-11-11 04:44:34 0.001155208 590.0 (m) PAYLOAD
OBJECT H SSO 2024-06-28 19:01:35 0.0001280557 515.0 (m) UNKNOWN

Associated space launch

CloudSat is a satellite which uses millimeter-wavelength radar to measure the altitude and properties of clouds. Advanced cloud-profiling radar gathers information on the vertical structure of highly dynamic cloud systems. This new information provides the first global measurements of cloud properties that will help scientists compile a database of cloud measurements to improve how clouds are represented in global climate and numerical weather prediction models.

DELTA 2 DEB (DPAF) was lifted into orbit during the mission ‘Delta 7420-10C | Cloudsat’, on board a Delta 7420-10C space rocket.

The launch took place on April 28, 2006, 10:02 a.m. from Space Launch Complex 2W.

For more information about the launch, click the button.

Launch to space Delta 7420-10C | Cloudsat
Delta 7420-10C | Cloudsat

Agency: N/A

Status: Launch Successful

Launch date: April 28, 2006, 10:02 a.m. UTC

Rocket: Delta 7420-10C

Launch pad: Space Launch Complex 2W

Location: Vandenberg SFB, CA, USA

...

Latest news about this satellite

There are no fresh news available about this satellite. Check back as we update our databases every day.


Newsletter sign-up

Weekly statistics, charts and insights to help you stay on top of the space industry.